Location: Fredericksburg
(30.2750°N, 98.8720°W)
Time: 22:41:52
(UTC-06:00)

Daily predictions for brighter satellites

Satellite Brightness Start Highest point End
(mag) Time Altitude Azimuth Time Altitude Azimuth Time Altitude Azimuth
Cosmos 2333 Rocket 2.2 18:17:12 10° S 18:22:48 72° ESE 18:28:26 10° NNE
CORIOLIS 4.2 18:21:19 10° SSE 18:26:39 88° WSW 18:32:01 10° NNW
Atlas Centaur 2 2.3 18:22:24 10° W 18:27:43 57° SSW 18:31:56 10° ESE
Cosmos 1743 Rocket 4.1 18:27:50 10° SSW 18:32:15 64° W 18:36:42 10° N
Cosmos 2219 Rocket 2.7 18:30:35 10° SSW 18:36:10 64° WNW 18:41:46 10° NNE
Cosmos 1340 Rocket 3.6 18:36:48 10° SSE 18:40:18 30° E 18:43:47 10° NNE
BREEZE-M DEB (TANK) 4.0 18:38:45 10° W 18:41:12 16° NW 18:42:52 10° N
MONITOR-E 4.2 18:38:35 10° SSE 18:41:44 90° ESE 18:44:55 10° N
Cosmos 2151 2.9 18:39:16 10° S 18:43:26 69° E 18:47:37 10° NNE
Cosmos 1328 Rocket 3.9 18:39:12 10° N 18:43:37 74° W 18:48:02 10° S
Cosmos 540 Rocket 3.4 18:39:12 10° SSW 18:44:21 82° ESE 18:49:32 10° NNE
Abrixas 2.8 18:41:54 10° WSW 18:44:47 58° NW 18:47:19 13° NE
Cosmos 2278 Rocket 2.8 18:42:33 10° N 18:47:38 33° ENE 18:52:40 10° SE
SL-14 R/B 3.2 18:45:07 10° S 18:48:59 82° E 18:52:55 10° N
Cosmos 1515 Rocket 3.6 18:46:09 10° N 18:50:37 85° W 18:55:03 10° S
Cosmos 1626 3.4 18:48:13 10° SE 18:51:02 21° E 18:52:36 16° ENE
Cosmos 2142 Rocket 4.5 18:45:15 10° N 18:51:38 75° E 18:57:57 10° S
Cosmos 1805 Rocket 4.2 18:47:41 10° SSE 18:51:41 34° E 18:55:43 10° NNE
USA 215 3.9 18:46:40 10° E 18:52:25 34° NE 18:58:11 10° NNW
SKYMED 2 4.2 18:49:20 10° N 18:53:36 59° WNW 18:57:51 10° SSW
Cosmos 1484 Rocket 3.1 18:50:19 10° S 18:54:09 70° W 18:58:05 10° NNW
Cosmos 1844 3.7 18:53:01 10° NNW 18:58:48 78° ENE 19:04:35 10° SSE
Cosmos 1151 Rocket 2.9 18:55:42 10° N 18:59:59 80° E 19:04:16 10° S
Haruka 3.4 18:57:42 10° W 19:01:30 86° N 19:09:16 17° E
NOAA 12 4.2 18:57:30 10° SSE 19:02:31 51° ENE 19:07:35 10° N
SEDSat Delta rocket 3.6 18:59:53 10° W 19:05:29 69° SSW 19:09:30 15° ESE
ALOS 3.3 19:03:12 10° ESE 19:06:52 23° ENE 19:10:32 10° NNE
Cosmos 2237 Rocket 2.8 19:01:23 10° SSW 19:06:54 59° WNW 19:12:27 10° N
Cosmos 1125 Rocket 3.4 19:02:40 10° N 19:07:51 67° ENE 19:12:59 10° SSE
Cosmos 1634 Rocket 4.3 19:02:11 10° N 19:08:20 71° W 19:14:25 10° S
Cosmos 44 4.4 19:04:07 10° SW 19:09:13 46° WNW 19:14:10 10° NNE
SL-16 R/B 2.2 19:06:01 10° S 19:11:32 58° ESE 19:16:18 14° NNE
Spot 2 Rocket 4.4 19:08:14 10° SE 19:12:21 26° ENE 19:16:28 10° NNE
Cosmos 1300 2.9 19:08:45 10° N 19:12:34 72° W 19:16:22 10° S
Cosmos 1726 2.6 19:10:32 10° NNW 19:14:16 64° W 19:17:59 10° S
Sich 1 3.4 19:11:28 10° SSE 19:15:37 41° E 19:17:57 22° NE
BREEZE-M DEB (TANK) 2.4 19:14:10 10° WSW 19:15:39 34° NNW 19:15:43 34° NNW
Hubble Space Telescope 2.2 19:12:20 10° W 19:16:06 34° SSW 19:19:11 14° SE
Cosmos 1633 Rocket 3.5 19:14:40 10° SSE 19:18:46 38° E 19:20:05 30° NE
Cosmos 1538 Rocket 4.1 19:14:03 10° S 19:19:08 53° ESE 19:22:41 20° NNE
FREGAT/IRIS 2.6 19:16:18 10° SSE 19:19:16 54° ENE 19:20:09 37° NNE
OTV 4 1.8 19:18:30 10° NW 19:20:41 26° N 19:20:41 26° N
Lacrosse 5 rocket 3.5 19:19:01 10° N 19:19:24 11° N 19:19:24 11° N
Cosmos 2297 4.3 19:21:37 10° N 19:26:42 32° ENE 19:27:01 32° ENE
SL-19 R/B 4.5 19:21:50 10° SE 19:27:44 52° ENE 19:33:16 10° N
Resurs 01 Rocket 3.8 19:24:19 10° SE 19:31:56 13° N 19:32:27 10° N
USA 229 DEB 4.0 19:22:43 10° S 19:29:07 44° ESE 19:31:47 31° ENE
USA 229 4.0 19:22:50 10° S 19:29:13 44° ESE 19:31:50 31° ENE
Cosmos 1184 Rocket 4.0 19:28:06 10° S 19:30:01 29° SSE 19:30:01 29° SSE
OAO 3 Rocket 3.7 19:29:11 10° WNW 19:33:57 56° SSW 19:36:25 26° SE
Aureole 2 Rocket 4.3 19:31:58 10° SW 19:35:07 31° WNW 19:38:33 10° N
Helios 1B rocket 3.7 19:39:17 26° SSE 19:39:17 26° SSE 19:41:25 10° S
Centaur AC-119 2.8 19:40:18 10° WSW 19:42:43 45° SSE 19:42:56 44° SSE
Iridium 4 Rocket 3.2 19:40:33 10° SSE 19:44:58 58° ESE 19:44:58 58° ESE
SJ-6B 3.4 19:41:41 10° S 19:45:37 58° W 19:49:39 10° NNW
Cosmos 1461 3.5 19:41:33 10° SW 19:45:44 54° WNW 19:47:02 37° N
Cosmos 1707 Rocket 3.3 19:41:36 10° N 19:45:56 79° E 19:50:14 10° S
FengYun 1-2 T 4.1 19:43:28 10° SSE 19:49:01 73° ENE 19:54:33 10° N
Cosmos 1666 Rocket 3.8 19:46:01 10° SSW 19:50:17 64° W 19:52:39 26° N
H-2A ROCKET BODY 2.6 19:39:57 10° W 20:01:07 80° S 20:02:29 57° ESE
FENGYUN 3A 3.5 19:57:35 10° SSE 20:02:55 87° WSW 20:08:18 10° NNW
Cosmos 773 Rocket 4.1 20:05:04 10° SSW 20:10:10 72° WNW 20:10:33 68° NW
Cosmos 1603 4.2 20:10:01 10° SSW 20:14:05 49° S 20:14:05 49° S
Atlas Centaur 2 3.8 20:13:16 10° WSW 20:15:53 15° SSW 20:16:30 15° SSW
Cosmos 2278 Rocket 4.2 20:26:54 10° NW 20:31:28 26° WSW 20:36:02 10° SSW
USA 215 3.7 20:32:58 40° S 20:35:08 56° SW 20:41:33 10° NW
ALOS 4.3 20:40:18 10° SSW 20:44:08 25° W 20:48:00 10° NW
Milstar 3 3.9 20:50:45 10° W 20:57:05 40° SSW 20:57:26 39° SSW
